Powrót do katalogu

STARLINK-33564

AktywnyŁącznośćVLEO
NORAD 62286·PAYLOAD·🇺🇸 United States

Wystrzelony Dec 8, 2024 z Cape Canaveral Space Force Station

Loading…

Następne Przeloty (najbliższe 24 godziny)

TLE

ŚwieżeSource: CelesTrak SupGP

Epoka: Sep 14, 2026, 21:46 UTC

1 62286C 24237V   26257.90743056  .00025817  00000+0  93520-3 0  2579
2 62286  42.9996 227.8910 0001440 262.3006 282.4553 15.27561180    18

Śledź STARLINK-33564 w czasie rzeczywistym z AllMySat

Download on the App Store